Regional Weather Roundup
Issued by NWS

Home | Current Version | Previous Version | Text Only | Print | Product List | Glossary On
Versions: 1 2 3 4 5 6 7 8 9 10 11 12 13 14 15 16 17 18 19 20 21 22 23 24 25 26 27 28 29 30 31 32 33 34 35 36 37 38 39 40 41 42 43 44 45 46 47 48 49 50
000
ASMX46 KSGX 231111
RWRMX

MEXICAN WEATHER ROUNDUP
NATIONAL WEATHER SERVICE SAN DIEGO CA
400 AM PDT SAT MAY 23 2015

BAJA CALIFORNIA

CITY           SKY/WX    TMP DP  RH WIND       PRES   REMARKS
ENSENADA NW      N/A     57  32  38 E1        30.07S
TIJUANA        MOCLDY    57  52  82 CALM      30.10S

NORTHWESTERN MEXICO

CITY           SKY/WX    TMP DP  RH WIND       PRES   REMARKS
CHIHUAHUA      MOCLDY    72  37  28 S15       30.08
HERMOSILLO     CLEAR     61  43  51 CALM      29.97
OBREGON        CLEAR     63  50  63 W2        29.90

NORTHEASTERN MEXICO

CITY           SKY/WX    TMP DP  RH WIND       PRES   REMARKS
MATAMOROS      PTCLDY    79  77  94 E5        30.03
MONTERREY      CLOUDY    73  72  94 SE8       30.01F
NUEVO LAREDO   CLOUDY    79  73  83 SE9       29.99
REYNOSA        MOCLDY    75  72  88 SE5       30.02
TORREON        MOCLDY    72  57  60 CALM      30.15S

WESTERN MEXICO

CITY           SKY/WX    TMP DP  RH WIND       PRES   REMARKS
GUADALAJARA    MOCLDY    63  55  77 CALM      30.26
MAZATLAN       PTCLDY    66  61  82 NE8       29.92S
PTO. VALLARTA  CLEAR     73  70  88 N3        29.92S
ZACATECAS      CLEAR     50  41  71 SW7       30.33F

CENTRAL MEXICO

CITY           SKY/WX    TMP DP  RH WIND       PRES   REMARKS
MEXICO CITY    MOCLDY    54  52  94 NE2       30.40S
QUERETARO      CLOUDY    61  57  88 CALM      30.37R
S. LUIS POTOSI CLEAR     57  57 100 CALM      30.30S
TAMPICO        PTCLDY    77  73  88 CALM      30.00
TOLUCA         MOCLDY    52  46  82 CALM      30.44R
VERACRUZ       MOCLDY    72  68  88 E2        30.02

SOUTHERN MEXICO

CITY           SKY/WX    TMP DP  RH WIND       PRES   REMARKS
ACAPULCO       MOCLDY    79  73  83 E17       29.93R
OAXACA         PTCLDY    59  54  82 N9        30.28
TAPACHULA      MOCLDY    75  72  88 CALM      29.91R
TUX. GUTIERREZ MOCLDY    72  68  88 SE2       30.02
VILLAHERMOSA   PTCLDY    77  72  83 E8        29.95S

YUCATAN PENINSULA

CITY           SKY/WX    TMP DP  RH WIND       PRES   REMARKS
CANCUN         PTCLDY    77  73  88 E2        30.07R
C. DEL CARMEN  MOCLDY    82  72  69 E13       29.97
COZUMEL        PTCLDY    72  72 100 CALM      30.06S
MERIDA         CLEAR     77  72  83 E9        30.05S

$$



USA.gov is the U.S. government's official web portal to all federal, state and local government web resources and services.